Date,TemperatureHighF,TemperatureAvgF,TemperatureLowF,DewpointHighF,DewpointAvgF,DewpointLowF,HumidityHigh,HumidityAvg,HumidityLow,PressureMaxIn,PressureMinIn,WindSpeedMaxMPH,WindSpeedAvgMPH,GustSpeedMaxMPH,PrecipitationSumIn
2013-11-1,72.0,60.1,39.0,24.4,16.0,2.3,21,18,16,24.98,24.78,25,7,25,0.00
2013-11-2,71.8,49.8,28.8,24.4,11.1,-1.1,34,21,16,25.04,24.92,11,3,11,0.00
2013-11-3,56.8,50.3,39.6,42.7,22.7,4.8,72,36,21,24.92,24.72,17,4,19,0.00
2013-11-4,72.1,56.0,48.4,52.0,38.4,27.8,85,56,22,24.81,24.72,17,5,17,0.00
2013-11-5,76.6,58.3,44.8,46.2,30.7,15.1,73,41,15,24.95,24.72,12,7,12,0.00
2013-11-6,65.1,55.0,41.7,21.8,17.8,11.5,33,24,17,25.04,25.04,12,7,12,0.00
2013-11-7,60.8,52.2,46.9,15.6,10.2,6.8,19,18,16,25.07,25.04,9,2,9,0.00
2013-11-8,59.0,48.0,34.5,37.0,24.2,7.1,79,42,19,25.04,24.83,11,4,11,0.00
2013-11-9,79.7,53.7,32.5,49.9,25.3,13.7,84,44,15,24.98,24.83,17,3,17,0.00
2013-11-10,77.5,54.8,35.1,26.3,19.6,14.6,48,27,15,24.95,24.95,7,4,8,0.00
2013-11-11,77.5,52.9,38.7,34.0,23.7,17.5,55,35,15,25.01,24.66,11,2,13,0.00
2013-11-12,50.0,40.4,33.6,39.2,25.5,18.0,80,56,40,24.98,24.75,17,5,23,0.00
2013-11-13,62.6,46.2,33.4,36.9,25.2,17.6,85,49,22,24.95,24.60,13,3,13,0.00
2013-11-14,70.3,52.3,40.3,33.7,26.9,18.7,63,41,17,24.60,24.39,22,6,22,0.00
2013-11-15,72.1,54.5,35.1,45.0,27.0,17.4,83,41,16,24.45,24.27,17,5,17,0.00
2013-11-16,74.7,62.7,47.3,36.0,27.6,22.5,60,29,16,24.30,24.21,23,9,26,0.00
2013-11-17,75.9,61.8,50.2,25.8,20.0,11.8,26,20,15,25.07,24.27,19,6,19,0.00
2013-11-18,69.4,57.0,42.4,24.1,17.6,11.9,35,22,17,25.13,25.07,9,2,10,0.00
2013-11-19,73.4,55.7,38.5,29.9,21.9,15.9,46,28,16,25.10,24.92,15,4,17,0.00
2013-11-20,74.5,58.5,46.6,46.4,26.3,9.7,69,33,16,24.95,24.86,15,3,17,0.00
2013-11-21,72.5,54.4,40.1,24.4,17.2,10.9,35,24,16,25.07,24.92,10,2,10,0.00
2013-11-22,48.7,29.2,23.2,29.1,17.2,12.2,78,63,29,25.25,25.07,13,6,13,0.00
2013-11-23,27.9,25.4,23.7,19.8,17.9,15.7,78,73,62,25.31,25.22,9,4,10,0.00
2013-11-26,43.5,35.1,24.6,7.7,4.8,2.0,46,29,20,25.28,25.22,14,4,17,0.00
2013-11-27,48.9,33.7,19.4,12.4,7.8,4.5,55,36,20,25.28,25.13,6,2,9,0.00
2013-11-28,61.5,41.1,25.3,18.9,12.4,5.6,49,33,19,25.22,25.07,10,2,10,0.00
2013-11-29,65.1,43.3,26.1,28.3,16.9,11.6,61,38,18,25.25,25.16,8,2,9,0.00
2013-11-30,71.2,51.8,37.2,25.7,20.4,15.3,49,31,17,25.19,25.10,12,2,13,0.00